Location: Newark
(52.4787°S, 179.0532°W)
Time: 04:24:02
(UTC+00:00)

Vanguard 1 - Pass Details

Date: 25 November 2019
Orbit: 651 x 3832 km, 34.3° (Epoch: 11 December)

Event Time Altitude Azimuth Distance (km) Brightness Sun altitude
Rises 13:00:21 0° 277° (W) 5,841 13.8 -14.9°
Reaches altitude 10° 13:04:05 10° 285° (WNW) 5,226 13.4 -14.7°
Maximum altitude 13:18:26 36° 343° (NNW) 4,543 12.9 -13.9°
Drops below altitude 10° 13:37:45 10° 39° (NE) 6,936 14.1 -12.6°
Sets 13:43:50 0° 45° (NE) 7,897 14.5 -12.2°
